Regional Weather Roundup
Issued by NWS

Home | Current Version | Previous Version | Text Only | Print | Product List | Glossary Off
Versions: 1 2 3 4 5 6 7 8 9 10 11 12 13 14 15 16 17 18 19 20 21 22 23 24 25 26 27 28 29 30 31 32 33 34 35 36 37 38 39 40 41 42 43 44 45 46 47 48 49 50

000
ASUS43 KDTX 251501
RWRMI
MICHIGAN HOURLY REGIONAL WEATHER ROUNDUP
NATIONAL WEATHER SERVICE DETROIT/PONTIAC MI
1100 AM EDT THU MAY 25 2017

NOTE: "FAIR" INDICATES FEW OR NO CLOUDS BELOW 12,000 FEET WITH NO
SIGNIFICANT WEATHER AND/OR OBSTRUCTION TO VISIBILITY.

MIZ047>049-052>055-059>063-066>070-074>076-081>083-251600-
SOUTHEAST LOWER MICHIGAN

CITY           SKY/WX    TMP DP  RH WIND       PRES   REMARKS
ADRIAN         CLOUDY    59  58  96 NE7       29.48S
ALMA           RAIN      56  55  98 NW7       29.55S
ANN ARBOR      CLOUDY    61  59  93 NE8       29.47S
BAD AXE        CLOUDY    54  54  99 NE7       29.53F FOG
CARO           CLOUDY    58  56  93 NE8       29.51F
DETROIT CITY   HVY RAIN  58  58 100 NE7       29.48S VSB 1
DETROIT        LGT RAIN  59  58  96 N7        29.48R FOG
FLINT          CLOUDY    57  56  96 NE7       29.50F FOG
GROSSE ILE     LGT RAIN  59  58  94 N5        29.46S
HILLSDALE      CLOUDY    59  55  88 N5        29.48S
HOWELL         FOG       57  55  93 N6        29.50S VSB 1

CITY           SKY/WX    TMP DP  RH WIND       PRES   REMARKS
JACKSON        CLOUDY    58  56  93 N10       29.49F FOG
LAMBERTVILLE   CLOUDY    60  58  92 NE3       29.45F
LANSING        CLOUDY    59  54  83 N12       29.52S
LAPEER         CLOUDY    57  56  97 NE8       29.51S FOG
MASON          CLOUDY    57  56  97 N10G16    29.51S FOG
MONROE         LGT RAIN  60  58  94 N6        29.46S
MT. CLEMENS    DRIZZLE   59  59 100 NE8       29.47S FOG
PONTIAC        DRIZZLE   58  55  90 N7        29.48S FOG
PORT HOPE        N/A     50  49  96 NE15      29.53S
PORT HURON     DRIZZLE   57  55  94 N5        29.49S
TRI CITIES     CLOUDY    55  55 100 NE14      29.54F FOG
MIDLAND        CLOUDY    56  54  92 NE7       29.54F
TROY           CLOUDY    60  57  92 NE6       29.50S
SAGINAW HB     CLOUDY    55  54  94 N13G18    29.52F FOG
$$
MIZ043>046-050>051-056>058-064>065-071>073-077>080-251600-
SOUTHWEST LOWER MICHIGAN

CITY           SKY/WX    TMP DP  RH WIND       PRES   REMARKS
BATTLE CREEK   CLOUDY    58  56  93 N10       29.52S
BENTON HARBOR  CLOUDY    54  50  86 VRB6      29.57R
BIG RAPIDS     CLOUDY    56  53  87 NE5       29.57S
COLDWATER      CLOUDY    59  59 100 N10       29.49S FOG
FREMONT        CLOUDY    58  54  84 N9        29.58R
HOLLAND        CLOUDY    60  54  80 VRB3      29.56R
GRAND RAPIDS   CLOUDY    58  57  97 N10       29.54S
IONIA          CLOUDY    58  56  92 N7        29.52S
KALAMAZOO      CLOUDY    58  54  86 N10       29.53S FOG
LUDINGTON      CLOUDY    60  54  80 NE8       29.60R
MARSHALL       CLOUDY    59  58  98 NE3       29.50S FOG
MOUNT PLEASANT CLOUDY    57  54  91 N6        29.56R
MUSKEGON       CLOUDY    62  54  74 N10       29.58R
SOUTH HAVEN    CLOUDY    56  55  93 NW7       29.56R
$$
MIZ016>042-251600-
NORTHERN LOWER MICHIGAN

CITY           SKY/WX    TMP DP  RH WIND       PRES   REMARKS
ALPENA         CLOUDY    55  55 100 NE14G24   29.62S
BEAVER ISLAND  CLOUDY    59  54  83 NE7       29.68S
BELLAIRE       DRIZZLE   56  53  91 N8        29.64S
CADILLAC       CLOUDY    55  54  94 NE9       29.60S
CHARLEVOIX     LGT RAIN  58  55  89 NE8       29.68S
FRANKFORT      MOSUNNY   63  52  68 NE12G18   29.63S
GAYLORD        CLOUDY    54  50  86 NE12G18   29.63S
GRAYLING       CLOUDY    54  53  95 N12       29.61F
HARBOR SPRINGS LGT RAIN  58  55  89 E12G17    29.65S
HOUGHTON LAKE  CLOUDY    55  53  93 NE10      29.59S
MANISTEE       CLOUDY    60  54  80 NE8       29.62R
OSCODA         FOG       51  50  97 N12       29.57S VSB 1
PELLSTON       LGT RAIN  58  52  80 NE9       29.66F
ROGERS CITY    LGT RAIN  48  47  97 NE6       29.65S
TRAVERSE CITY  CLOUDY    56  52  86 N7        29.63S
$$
MIZ007>008-015-251600-
EASTERN UPPER MICHIGAN

CITY           SKY/WX    TMP DP  RH WIND       PRES   REMARKS
KINROSS        LGT RAIN  57  53  86 NE10      29.69S
MACKINAC ISLAN RAIN      55  55 100 NE12      29.67F
NEWBERRY       CLOUDY    56  54  91 NE6       29.71S
S. S. MARIE    LGT RAIN  60  54  80 VRB6      29.69F
MUNISING         N/A     48  42  80 N10       29.73S
$$
MIZ004>006-011>014-085-251600-
CENTRAL UPPER MICHIGAN

CITY           SKY/WX    TMP DP  RH WIND       PRES   REMARKS
MANISTIQUE     CLOUDY    59  51  75 N10G16    29.70R
ESCANABA       PTSUNNY   60  50  69 N9        29.71S
MENOMINEE      PTSUNNY   60  51  72 E10       29.70S
SAWYER-GWINN   SUNNY     55  46  71 NE8       29.74F
$$
MIZ001>003-009>011-084-251600-
WESTERN UPPER MICHIGAN

CITY           SKY/WX    TMP DP  RH WIND       PRES   REMARKS
IRON MOUNTAIN  SUNNY     64  49  57 VRB7      29.71F
HOUGHTON       SUNNY     61  45  55 E10       29.75F
COPPER HARBOR    N/A     48  40  73 CALM      29.76F
IRONWOOD       SUNNY     61  47  59 E8        29.74F
$$

ABBREVIATIONS USED IN REMARKS
   TC - TEMPERATURE IN CELSIUS
  WCI - WIND CHILL INDEX
   HX - HEAT INDEX
  VSB - VISIBILITY





USA.gov is the U.S. government's official web portal to all federal, state and local government web resources and services.